Temperature
20 19 19 19 19 19 18 18 18 18 18 18 18 18 17 17 17 17 17 17 16 16 16 16 16 16 16 16 16 16 16 15 15 15 14 14 14 14 14 14 14 14 14
20 19 19 19 19 19 18 18 18 18 18 18 18 18 17 17 17 17 17 16 16 16 16 15 15 15 15 15 15 15 15 15 15 14 14 14 14 14 13 13 13 13 13
20 19 19 19 19 18 18 18 18 18 18 18 17 17 17 17 17 17 16 16 16 16 15 15 15 15 15 15 15 15 15 14 14 14 14 13 13 13 13 13 13 13 13
20 20 19 19 19 18 18 18 18 18 18 17 17 17 17 17 17 17 16 16 16 15 15 15 15 15 15 15 14 14 14 14 14 14 13 13 13 12 12 12 12 12 12
20 20 19 19 19 18 18 18 18 18 17 17 17 17 17 17 16 16 16 16 16 15 15 15 14 14 14 14 14 14 14 14 13 13 13 12 12 12 12 12 12 11 11
20 20 19 19 19 18 18 18 17 17 17 17 17 17 16 16 16 16 16 16 15 15 15 15 14 14 14 14 14 14 13 13 13 13 12 12 12 12 11 11 11 11 11
20 19 19 19 18 18 18 17 17 17 17 16 16 16 16 16 16 16 15 15 15 15 15 14 14 14 14 14 14 13 13 13 12 12 12 12 12 12 11 11 11 11 11
19 19 19 19 18 18 17 17 17 16 16 16 16 16 16 15 15 15 15 15 15 15 14 14 14 14 14 13 13 13 13 12 12 12 12 12 11 11 11 11 11 11 11
19 19 19 18 18 18 17 17 17 16 16 16 16 15 15 15 15 15 14 14 14 14 14 14 13 13 13 13 13 13 12 12 12 12 11 11 11 11 11 11 10 10 10
19 19 19 18 18 18 17 17 16 16 16 15 15 15 15 15 14 14 14 14 14 14 13 13 13 13 12 12 12 12 12 12 11 11 11 11 11 11 10 10 10 10 10
19 18 18 18 17 17 17 16 16 16 15 15 15 14 14 14 14 14 14 14 13 13 13 13 12 12 12 12 12 12 11 11 11 11 11 10 10 10 10 10 10 10 10
18 18 17 17 17 16 16 16 16 15 15 15 14 14 14 14 14 14 13 13 13 12 12 12 12 12 11 11 11 11 11 11 11 10 10 10 10 10 10 9 9 9 9
18 17 17 17 16 16 16 15 15 15 15 14 14 14 14 14 13 13 13 13 12 12 12 12 11 11 11 11 11 10 10 10 10 10 10 10 10 9 9 9 9 9 9
17 17 16 16 16 15 15 15 15 15 14 14 14 14 14 13 13 13 12 12 12 12 11 11 11 11 11 11 10 10 10 10 10 10 9 9 9 9 9 9 9 8 8
17 16 16 16 15 15 15 14 14 14 14 14 14 14 13 13 13 12 12 12 12 11 11 11 11 10 10 10 10 10 10 9 9 9 9 9 9 9 8 8 8 8 8
16 16 15 15 15 15 14 14 14 13 13 13 13 13 13 13 12 12 12 11 11 11 11 11 10 10 10 10 10 9 9 9 9 9 9 9 9 8 8 8 8 8 8
15 15 15 14 14 14 14 14 13 13 13 13 12 12 12 12 12 12 11 11 11 11 10 10 10 10 9 9 9 9 9 9 9 8 8 8 8 8 8 8 8 8 8
15 15 14 14 14 14 14 13 13 13 13 13 12 12 12 12 12 11 11 11 11 10 10 10 9 9 9 9 9 9 9 9 8 8 8 8 8 8 8 8 8 8 8
14 14 14 14 14 13 13 13 13 13 13 12 12 12 12 11 11 11 11 11 10 10 10 10 9 9 9 9 9 9 9 8 8 8 8 8 8 8 8 8 8 8 7
14 14 13 13 13 13 13 12 12 12 12 12 12 12 11 11 11 11 10 10 10 10 9 9 9 9 9 9 9 9 8 8 8 8 8 8 8 7 7 7 7 7 7
13 13 13 13 13 13 12 12 12 12 12 12 12 11 11 11 11 10 10 10 10 9 9 9 9 9 9 9 8 8 8 8 8 8 8 7 7 7 7 7 7 7 7
13 13 13 12 12 12 12 12 12 11 11 11 11 11 11 10 10 10 10 10 9 9 9 9 9 9 9 8 8 8 8 8 8 7 7 7 7 7 7 7 7 6 6
13 12 12 12 12 12 11 11 11 11 11 11 10 10 10 10 10 9 9 9 9 9 9 8 8 8 8 8 8 8 7 7 7 7 7 7 7 7 6 6 6 6 6
12 12 12 12 11 11 11 11 11 11 10 10 10 10 10 10 9 9 9 9 8 8 8 8 8 8 7 7 7 7 7 7 7 7 6 6 6 6 6 6 6 6 6
12 12 11 11 11 11 11 10 10 10 10 10 10 9 9 9 9 9 9 8 8 8 8 8 7 7 7 7 7 7 6 6 6 6 6 6 6 6 5 5 5 5 5
11 11 11 11 11 10 10 10 10 10 9 9 9 9 9 9 8 8 8 8 8 7 7 7 7 7 6 6 6 6 6 6 6 5 5 5 5 5 5 5 5 5 5
Wind_Speed
8 7 7 6 6 5 5 5 4 3 3 3 3 2 2 1 0 1 1 1 1 1 1 1 1 1 0 0 1 1 2 2 2 1 0 0 1 1 2 2 2 2 2
8 7 7 6 6 5 5 4 4 4 3 3 3 3 2 1 0 1 1 0 1 1 1 0 1 0 0 1 1 1 1 2 3 2 1 0 0 0 1 2 2 2 3
8 8 7 6 6 5 5 4 4 4 3 3 3 3 2 1 1 1 1 1 1 1 1 1 1 1 1 1 1 1 1 1 2 3 2 0 0 0 1 1 1 2 2
8 8 7 7 6 6 5 5 5 4 4 3 3 3 2 2 1 1 1 1 1 0 0 1 1 1 2 2 1 1 1 2 2 3 2 1 0 0 1 0 1 1 1
9 8 7 6 6 5 5 5 4 4 4 4 3 2 2 2 1 1 1 2 1 1 1 1 1 2 2 2 2 2 2 2 3 3 2 1 1 1 1 1 1 1 2
9 8 8 7 7 6 6 5 5 4 3 4 3 3 2 1 1 2 3 2 1 1 1 1 1 2 2 2 2 3 3 3 4 3 2 2 2 2 1 1 1 0 1
9 8 8 8 7 7 6 6 5 4 3 3 3 3 2 1 1 2 3 3 2 2 2 2 2 2 2 1 2 3 2 2 4 4 4 4 3 3 3 2 2 2 3
9 9 8 8 7 6 6 5 4 4 3 3 3 3 2 1 2 3 3 3 3 2 2 2 2 1 1 2 3 3 2 1 1 2 3 3 3 4 4 4 3 2 1
9 9 8 8 8 7 6 5 4 4 3 3 3 3 3 1 2 3 4 2 2 2 2 2 3 2 1 3 4 3 2 2 3 2 2 3 3 4 4 2 2 1 1
8 8 8 8 8 8 7 5 4 4 4 3 3 2 3 2 2 3 4 3 2 2 2 2 3 3 3 4 4 3 2 1 2 3 3 2 2 2 3 3 3 2 1
7 7 6 6 6 6 5 4 4 4 4 3 3 2 2 2 2 3 4 3 3 2 1 1 1 3 4 4 4 2 2 1 1 2 2 2 2 1 0 1 3 3 2
8 8 7 6 5 5 5 5 4 5 4 3 2 2 1 1 2 2 4 4 3 3 2 1 0 3 4 4 3 2 2 2 2 2 2 1 0 1 1 1 2 3 3
8 8 7 6 4 4 5 5 4 4 4 3 3 2 1 0 0 1 3 4 4 2 1 2 2 2 3 2 1 2 3 2 2 1 1 1 1 1 1 1 1 0 1
9 7 7 7 5 4 4 4 4 3 4 4 3 3 2 1 0 1 1 2 3 2 1 1 2 2 3 2 2 1 1 1 1 1 1 1 1 1 0 0 1 1 1
8 7 6 6 6 5 4 3 3 3 4 5 4 4 4 3 3 4 4 3 3 2 3 2 2 2 1 1 1 1 1 1 0 1 0 0 1 1 1 1 0 0 1
8 6 5 5 5 5 4 2 3 2 2 3 4 4 3 4 5 6 5 5 5 6 5 2 1 1 1 2 2 1 1 1 1 1 1 1 1 1 1 1 1 1 2
7 6 5 5 5 5 5 5 3 1 2 2 2 3 4 4 4 5 5 5 5 7 3 2 2 2 2 2 2 2 2 2 1 1 2 2 2 1 1 1 1 2 2
6 6 5 5 5 5 5 5 4 4 2 0 1 2 3 4 4 4 4 5 3 3 2 3 3 3 3 2 2 2 2 2 2 2 2 2 2 2 2 2 2 3 3
4 4 4 4 4 4 4 4 4 4 3 2 1 0 1 2 1 1 4 3 3 3 4 3 3 3 3 3 3 3 3 3 2 2 3 3 2 2 3 3 3 4 3
3 5 5 4 4 4 4 4 3 3 3 3 3 2 2 3 1 1 2 3 3 4 4 4 4 4 3 3 3 3 3 3 3 3 3 3 3 2 3 4 3 3 3
2 3 4 4 3 4 4 4 4 3 3 3 3 4 6 4 3 3 4 4 5 5 5 4 4 3 3 3 3 3 4 3 3 3 3 3 2 2 3 3 3 3 3
3 3 3 3 3 3 3 3 3 3 4 4 3 3 6 3 3 3 3 4 4 4 4 3 3 3 3 3 3 3 3 3 3 3 3 3 2 2 3 3 3 2 2
4 4 3 3 3 4 3 2 2 2 2 2 2 2 3 3 3 3 3 3 3 3 2 2 2 2 1 1 1 2 2 3 3 3 3 3 2 2 2 3 3 3 3
3 3 4 3 3 3 3 2 2 2 2 2 2 2 2 2 2 2 2 2 2 1 2 2 2 1 1 1 1 1 2 3 3 2 3 3 3 3 2 2 3 3 3
3 3 3 3 4 4 3 3 2 2 2 2 2 2 2 2 1 1 1 1 1 1 2 2 3 2 2 1 1 2 3 3 2 1 2 2 2 2 2 2 3 3 3
3 3 3 3 3 3 3 3 3 3 3 2 2 2 2 2 1 1 1 2 2 2 2 3 3 3 3 2 3 4 4 4 4 4 2 1 1 2 2 2 3 2 3
Wind_Direction
186 184 178 178 179 176 176 182 175 165 155 154 162 147 125 120 151 154 187 163 178 244 247 209 255 261 69 200 178 177 171 154 178 249 295 70 69 81 64 76 87 96 107
176 167 167 166 163 165 173 176 164 159 163 160 141 134 138 132 200 183 203 185 189 239 260 219 248 272 332 184 153 156 164 155 155 181 214 9 15 105 89 75 82 85 96
162 158 157 158 159 164 165 157 149 151 146 134 130 131 134 136 141 182 180 166 178 205 218 186 209 155 187 172 143 162 178 161 152 160 181 218 276 133 76 48 58 65 79
154 152 156 161 161 161 156 151 147 142 135 136 136 137 138 130 119 110 137 135 108 133 148 164 171 164 173 176 165 166 153 136 136 147 159 162 191 262 122 80 10 355 353
155 157 163 160 153 148 149 149 142 136 139 138 134 128 122 122 125 137 145 138 127 88 46 94 128 119 120 145 149 160 150 146 146 148 161 169 181 152 202 214 220 305 321
158 163 162 156 151 148 148 144 139 136 135 131 133 134 123 140 145 130 137 138 133 129 92 50 90 91 91 114 141 153 156 160 165 164 177 193 205 201 189 185 181 226 276
162 166 163 160 159 160 155 149 147 143 134 130 134 131 131 115 84 94 112 126 120 119 113 96 83 67 86 108 94 88 101 141 167 169 179 200 199 201 185 194 216 220 237
166 167 164 160 158 156 153 156 156 149 148 147 143 141 134 92 83 86 103 108 98 96 104 113 105 57 61 107 105 84 61 44 176 165 185 204 202 196 191 196 205 207 268
166 166 166 162 158 157 161 165 160 153 152 155 153 149 140 99 78 101 115 106 99 91 98 95 102 85 68 109 108 100 67 27 43 92 146 165 165 166 158 130 137 145 276
171 166 161 162 160 162 165 166 157 150 154 149 145 149 146 140 108 107 124 122 111 85 63 67 77 84 83 109 114 115 106 50 51 52 55 65 99 142 153 160 173 179 212
154 147 146 151 152 151 152 151 145 141 137 140 144 144 143 143 132 119 130 145 146 126 99 60 28 70 89 102 108 120 157 139 98 88 68 54 47 42 92 180 185 181 193
136 139 137 136 143 150 144 142 138 141 145 147 138 126 118 145 142 141 130 128 135 139 153 188 88 82 81 95 103 91 96 94 95 88 78 49 346 298 287 265 208 206 215
136 141 143 135 139 155 153 149 143 146 152 154 147 154 177 153 70 107 123 123 119 132 154 147 129 104 90 82 84 96 102 100 107 115 180 244 256 264 304 342 348 310 269
137 144 147 144 151 155 145 149 154 163 167 169 175 177 177 164 129 93 105 111 105 97 85 94 95 81 81 61 35 33 59 137 157 188 247 272 323 360 326 302 320 344 347
145 152 155 152 156 151 144 154 169 183 182 176 189 181 173 190 211 179 159 153 159 161 124 85 67 59 45 15 359 347 345 4 299 285 236 309 311 290 280 269 228 270 261
147 157 162 162 160 157 148 116 62 116 136 167 173 168 182 186 176 171 173 174 170 153 129 126 161 185 211 228 236 266 266 256 249 230 220 226 241 262 279 288 254 221 244
154 163 165 166 166 167 165 162 159 71 51 74 175 183 183 176 168 170 177 177 165 150 145 174 196 210 219 225 229 235 250 257 247 225 230 236 239 251 264 273 272 268 264
153 160 162 171 174 174 174 174 171 168 167 251 288 203 198 195 191 186 165 132 126 155 186 202 214 219 219 227 234 242 255 263 247 241 241 245 238 239 255 270 259 253 259
154 161 159 164 161 165 167 168 173 173 170 169 142 54 180 163 142 155 146 155 181 199 212 221 224 221 221 223 226 232 237 240 243 239 242 245 245 241 251 256 257 257 247
157 161 158 159 160 161 163 165 178 185 185 184 193 199 149 113 121 168 186 198 204 214 216 221 227 223 221 221 222 224 228 236 238 237 243 243 243 244 250 255 258 257 250
148 152 152 152 158 161 162 170 178 181 190 199 208 194 169 172 190 203 208 211 215 218 218 219 225 226 225 224 223 227 229 236 237 236 241 243 243 250 258 259 260 255 262
141 142 142 145 148 147 150 154 157 173 185 192 203 188 176 182 196 205 216 225 227 225 217 209 218 230 230 230 226 225 233 238 239 238 240 242 244 250 254 259 266 267 263
134 140 139 131 126 128 127 134 149 163 177 185 181 167 178 201 207 215 224 227 224 221 204 190 200 223 240 252 221 198 215 235 238 231 231 240 248 255 258 254 255 261 256
135 142 138 131 128 132 137 140 140 139 139 142 144 146 160 181 199 210 217 218 202 186 153 156 159 154 122 62 37 12 322 293 274 247 228 234 241 251 254 260 261 257 254
125 128 134 139 139 137 136 134 128 120 115 107 106 115 122 136 153 166 166 148 148 143 123 127 129 121 105 82 42 6 343 335 337 324 272 234 241 250 259 263 263 266 258
117 119 121 123 125 127 128 127 123 123 122 125 126 124 124 126 125 123 115 109 113 108 95 91 98 97 79 48 23 14 8 3 4 357 342 281 249 259 274 270 270 267 267
Height
1533 1535 1536 1537 1539 1540 1541 1542 1543 1544 1544 1545 1545 1545 1544 1543 1542 1542 1541 1540 1540 1540 1540 1539 1539 1540 1540 1540 1540 1541 1541 1541 1540 1541 1541 1541 1541 1541 1541 1540 1540 1539 1539
1532 1533 1534 1536 1537 1538 1539 1540 1541 1542 1543 1543 1543 1543 1542 1541 1540 1539 1538 1537 1537 1537 1536 1536 1536 1536 1536 1537 1537 1537 1538 1538 1538 1537 1538 1538 1538 1538 1538 1537 1537 1536 1536
1530 1532 1533 1535 1536 1537 1538 1538 1539 1540 1541 1541 1541 1541 1540 1539 1538 1537 1536 1535 1535 1534 1534 1533 1533 1533 1533 1533 1534 1534 1534 1535 1535 1535 1534 1535 1535 1536 1535 1535 1534 1534 1534
1529 1531 1532 1534 1535 1535 1536 1537 1538 1539 1539 1539 1539 1539 1539 1538 1537 1535 1534 1534 1533 1532 1532 1531 1531 1531 1530 1531 1531 1531 1531 1532 1532 1532 1532 1532 1533 1533 1533 1532 1532 1532 1532
1528 1529 1531 1532 1534 1534 1535 1536 1536 1537 1537 1538 1538 1537 1537 1536 1535 1534 1533 1532 1531 1530 1530 1529 1529 1529 1528 1529 1529 1529 1529 1529 1529 1529 1529 1529 1530 1530 1530 1530 1530 1530 1529
1526 1528 1529 1531 1532 1533 1534 1534 1534 1535 1535 1535 1535 1535 1535 1534 1533 1532 1532 1531 1530 1529 1529 1528 1528 1527 1527 1527 1527 1527 1527 1527 1526 1526 1527 1527 1527 1527 1528 1528 1528 1527 1527
1525 1527 1528 1529 1530 1531 1532 1532 1532 1533 1533 1533 1533 1533 1532 1532 1531 1531 1530 1529 1528 1528 1527 1527 1526 1526 1526 1525 1525 1525 1525 1525 1525 1525 1525 1525 1525 1525 1525 1525 1525 1525 1525
1522 1524 1526 1527 1528 1529 1530 1530 1530 1530 1531 1531 1530 1530 1530 1529 1529 1529 1529 1528 1527 1527 1526 1526 1525 1525 1524 1524 1523 1523 1523 1523 1523 1523 1523 1523 1524 1524 1523 1523 1523 1523 1523
1520 1522 1523 1525 1526 1527 1528 1528 1528 1528 1528 1528 1528 1528 1527 1527 1527 1527 1526 1526 1525 1525 1525 1524 1524 1523 1523 1523 1522 1522 1522 1522 1522 1522 1522 1522 1522 1522 1521 1521 1521 1520 1520
1518 1520 1521 1523 1524 1524 1525 1526 1526 1526 1526 1526 1526 1525 1525 1525 1525 1525 1525 1524 1524 1523 1523 1523 1523 1523 1523 1522 1521 1521 1520 1520 1520 1520 1520 1520 1520 1519 1519 1519 1519 1518 1518
1517 1518 1519 1521 1522 1522 1523 1523 1524 1524 1524 1524 1524 1523 1523 1523 1523 1522 1523 1522 1522 1522 1522 1522 1522 1522 1522 1521 1521 1520 1520 1520 1519 1519 1519 1519 1518 1518 1517 1517 1517 1517 1516
1515 1516 1517 1518 1519 1520 1520 1521 1521 1522 1521 1521 1521 1521 1521 1521 1521 1521 1521 1520 1521 1521 1521 1521 1521 1521 1521 1521 1520 1520 1519 1519 1518 1518 1518 1517 1517 1516 1516 1515 1515 1515 1515
1512 1514 1515 1515 1518 1519 1518 1519 1519 1520 1519 1519 1519 1519 1520 1520 1520 1519 1519 1519 1520 1520 1520 1520 1520 1520 1520 1520 1519 1519 1518 1518 1517 1517 1516 1516 1516 1516 1515 1514 1514 1513 1513
1509 1511 1512 1513 1515 1516 1516 1517 1517 1518 1518 1518 1518 1517 1518 1518 1518 1518 1518 1518 1519 1519 1519 1519 1519 1519 1519 1518 1518 1518 1517 1517 1516 1516 1515 1515 1515 1514 1513 1513 1512 1511 1511
1507 1509 1510 1511 1513 1512 1513 1515 1516 1516 1517 1517 1517 1517 1517 1516 1517 1518 1518 1518 1518 1518 1518 1518 1518 1518 1517 1517 1516 1516 1516 1516 1515 1514 1514 1513 1513 1512 1512 1511 1511 1510 1509
1504 1506 1508 1509 1510 1511 1512 1513 1514 1515 1515 1516 1516 1516 1516 1516 1516 1516 1517 1517 1517 1517 1517 1516 1516 1516 1515 1515 1515 1514 1514 1514 1513 1513 1512 1512 1511 1510 1510 1509 1509 1508 1507
1503 1504 1505 1507 1508 1509 1510 1510 1511 1513 1514 1514 1514 1514 1515 1515 1515 1515 1515 1515 1515 1515 1514 1514 1514 1514 1514 1513 1513 1512 1512 1512 1512 1511 1510 1510 1509 1509 1508 1507 1506 1505 1505
1501 1502 1503 1504 1505 1507 1507 1508 1509 1510 1511 1511 1512 1512 1513 1513 1513 1513 1513 1513 1513 1512 1512 1512 1512 1512 1512 1511 1511 1511 1510 1510 1509 1508 1508 1507 1507 1507 1506 1505 1504 1503 1502
1499 1500 1501 1502 1502 1504 1505 1506 1507 1508 1508 1509 1510 1510 1510 1510 1510 1510 1510 1510 1510 1510 1510 1510 1510 1509 1509 1509 1509 1508 1508 1507 1506 1506 1505 1505 1505 1504 1503 1503 1502 1501 1500
1497 1498 1499 1499 1500 1501 1502 1503 1505 1505 1506 1506 1507 1508 1508 1507 1507 1507 1507 1507 1507 1507 1507 1507 1507 1507 1506 1506 1506 1505 1505 1504 1504 1503 1503 1502 1502 1501 1501 1500 1499 1498 1497
1496 1496 1497 1498 1498 1499 1500 1501 1502 1503 1503 1504 1504 1505 1505 1505 1504 1504 1504 1504 1504 1504 1504 1504 1503 1503 1503 1503 1503 1502 1502 1501 1501 1500 1500 1499 1498 1498 1497 1497 1496 1495 1494
1494 1494 1495 1496 1497 1498 1498 1499 1500 1500 1501 1501 1502 1502 1503 1502 1502 1502 1502 1502 1502 1501 1501 1501 1500 1500 1500 1500 1499 1499 1498 1497 1497 1496 1496 1496 1495 1494 1494 1493 1492 1492 1491
1492 1493 1493 1494 1495 1496 1496 1497 1498 1498 1498 1499 1499 1500 1499 1499 1499 1499 1499 1499 1499 1498 1498 1498 1497 1497 1496 1496 1495 1495 1494 1493 1493 1493 1492 1492 1491 1491 1490 1489 1489 1488 1487
1491 1491 1492 1492 1493 1494 1495 1495 1496 1496 1496 1497 1497 1497 1497 1497 1496 1496 1496 1495 1495 1495 1495 1495 1494 1493 1493 1493 1492 1491 1490 1490 1490 1489 1488 1488 1487 1487 1486 1485 1484 1484 1483
1490 1490 1491 1492 1492 1493 1493 1494 1494 1495 1495 1495 1495 1495 1495 1494 1494 1493 1493 1492 1492 1492 1491 1491 1491 1490 1490 1489 1488 1488 1487 1486 1486 1485 1484 1483 1483 1482 1482 1481 1480 1480 1479
1489 1489 1490 1491 1491 1492 1492 1492 1493 1493 1494 1494 1494 1494 1493 1493 1492 1491 1491 1490 1489 1489 1488 1488 1488 1487 1487 1486 1485 1484 1484 1483 1482 1481 1480 1479 1479 1478 1477 1477 1476 1476 1475